Regional Weather Roundup
Issued by NWS Cleveland, OH

Home | Current Version | Previous Version | Graphics & Text | Print | Product List | Glossary On
Versions: 1 2 3 4 5 6 7 8 9 10 11 12 13 14 15 16 17 18 19 20 21 22 23 24 25 26 27 28 29 30 31 32 33 34 35 36 37 38 39 40 41 42 43 44 45 46 47 48 49 50
000
ASUS41 KCLE 031210
RWRCLE
OHIO REGIONAL WEATHER ROUNDUP
NATIONAL WEATHER SERVICE WILMINGTON, OH
800 AM EDT TUE MAY 03 2016

NOTE: "FAIR" INDICATES FEW OR NO CLOUDS BELOW 12,000 FEET WITH NO
SIGNIFICANT WEATHER AND/OR OBSTRUCTIONS TO VISIBILITY.

OHZ001>008-015>018-024>027-034-035-043-044-031300-
   NORTHWEST OHIO

CITY           SKY/WX    TMP DP  RH WIND       PRES   REMARKS
DEFIANCE       CLOUDY    48  46  93 CALM      29.95S
FINDLAY        CLOUDY    50  43  77 N5        29.93S HAZE
TOLEDO EXPRESS CLOUDY    48  47  96 CALM      29.94R FOG
TOLEDO EXEC    CLOUDY    50  46  86 W3        29.94S FOG
LIMA           CLOUDY    47  45  93 N5        29.93S
$$

OHZ009>014-019>023-028>033-038-089-031300-
   NORTHEAST OHIO

CITY           SKY/WX    TMP DP  RH WIND       PRES   REMARKS
CLE-HOPKINS    FAIR      47  43  86 N3        29.95R
CLE-LAKEFRONT  FAIR      48  43  82 CALM      29.92S
CUY CO. ARPT   CLOUDY    45  45 100 CALM      29.93S FOG
LORAIN-ELYRIA  CLOUDY    47  42  83 N3        29.93S
ASHTABULA      CLOUDY    43  42  97 N3        29.91F FOG
AKRON-CANTON   FAIR      45  40  82 NE12      29.90S
WOOSTER        CLOUDY    45  42  89 N7        29.92R FOG
MANSFIELD      CLOUDY    44  42  93 NW3       29.92R
YOUNGSTOWN     CLOUDY    43  41  93 NW6       29.89S FOG
$$

OHZ042-051>053-060>062-070>072-077>081-031300-
  SOUTHWEST OHIO

CITY           SKY/WX    TMP DP  RH WIND       PRES   REMARKS
CINC-COVINGTON CLOUDY    54  51  90 NW5       29.90R
CINC-LUNKEN    CLOUDY    54  51  90 NE5       29.92R
HAMILTON       CLOUDY    53  48  83 N7        29.93R
DAYTON         CLOUDY    48  45  89 N8        29.93R
WRIGHT-PAT AFB PTSUNNY   50  47  91 N7        29.92R
DAYTON GENERAL CLOUDY    50  45  83 NE6       29.90S
WILMINGTON     LGT RAIN  49  46  90 NE5       29.91R
$$

OHZ036-037-039>041-045>050-054>059-063>069-073>076-082>088-031300-
  CENTRAL AND SOUTHEAST OHIO

CITY           SKY/WX    TMP DP  RH WIND       PRES   REMARKS
COLUMBUS       CLOUDY    47  44  90 NE6       29.90S
OSU AIRPORT    CLOUDY    48  44  86 N6        29.91R
BOLTON FIELD   CLOUDY    48  45  87 NE3       29.91S
RICKENBACK AFB CLOUDY    48  45  88 NE5       29.91R
NEWARK         PTSUNNY   49  42  77 CALM      29.90R
MARION         CLOUDY    47  43  86 N5        29.93R
LANCASTER      CLOUDY    50  46  86 N5        29.90S
ZANESVILLE     CLOUDY    50  43  77 N5        29.89F
NEW PHILLY     FAIR      47  40  76 NW3       29.91R
$$




USA.gov is the U.S. government's official web portal to all federal, state and local government web resources and services.